カタログに戻る

ONEWEB-0326

運用中通信PO
NORAD 49195·PAYLOAD·🇬🇧 United Kingdom

打ち上げ Sep 14, 2021 から Baikonur Cosmodrome

Loading…

次のパス (今後24時間)

TLE

最新Source: CelesTrak SupGP

元期: Sep 15, 2026, 02:01 UTC

1 49195C 21083K   26258.08456433  .00002575  00000+0  65386-2 0  2584
2 49195  87.9170 317.5975 0002158 103.6112 337.1980 13.18686867    15

AllMySatでONEWEB-0326をリアルタイム追跡

Download on the App Store